Year,Month,Day,Hour,Minute,Value (Times are PST for temperature in C)
2015,05,27,00,00,11.10
2015,05,27,00,01,11.10
2015,05,27,00,02,11.10
2015,05,27,00,03,11.10
2015,05,27,00,04,11.10
2015,05,27,00,05,11.10
2015,05,27,00,06,11.10
2015,05,27,00,07,11.10
2015,05,27,00,08,11.10
2015,05,27,00,09,11.10
2015,05,27,00,10,11.10
2015,05,27,00,11,11.10
2015,05,27,00,12,11.10
2015,05,27,00,13,11.10
2015,05,27,00,14,11.10
2015,05,27,00,15,11.10
2015,05,27,00,16,11.10
2015,05,27,00,17,11.00
2015,05,27,00,18,11.00
2015,05,27,00,19,11.00
2015,05,27,00,20,11.00
2015,05,27,00,21,11.00
2015,05,27,00,22,11.10
2015,05,27,00,23,11.10
2015,05,27,00,24,11.10
2015,05,27,00,25,11.10
2015,05,27,00,26,11.10
2015,05,27,00,27,11.20
2015,05,27,00,28,11.20
2015,05,27,00,29,11.20
2015,05,27,00,30,11.20
2015,05,27,00,31,11.20
2015,05,27,00,32,11.30
2015,05,27,00,33,11.30
2015,05,27,00,34,11.30
2015,05,27,00,35,11.30
2015,05,27,00,36,11.30
2015,05,27,00,37,11.30
2015,05,27,00,38,11.20
2015,05,27,00,39,11.20
2015,05,27,00,40,11.20
2015,05,27,00,41,11.20
2015,05,27,00,42,11.20
2015,05,27,00,43,11.20
2015,05,27,00,44,11.20
2015,05,27,00,45,11.10
2015,05,27,00,46,11.10
2015,05,27,00,47,11.10
2015,05,27,00,48,11.10
2015,05,27,00,49,11.10
2015,05,27,00,50,11.10
2015,05,27,00,51,11.10
2015,05,27,00,52,11.10
2015,05,27,00,53,11.10
2015,05,27,00,54,11.10
2015,05,27,00,55,11.10
2015,05,27,00,56,11.10
2015,05,27,00,57,11.10
2015,05,27,00,58,11.10
2015,05,27,00,59,11.10
2015,05,27,01,00,11.10
2015,05,27,01,01,11.10
2015,05,27,01,02,11.10
2015,05,27,01,03,11.10
2015,05,27,01,04,11.10
2015,05,27,01,05,11.10
2015,05,27,01,06,11.10
2015,05,27,01,07,11.10
2015,05,27,01,08,11.10
2015,05,27,01,09,11.10
2015,05,27,01,10,11.10
2015,05,27,01,11,11.20
2015,05,27,01,12,11.20
2015,05,27,01,13,11.20
2015,05,27,01,14,11.20
2015,05,27,01,15,11.20
2015,05,27,01,16,11.20
2015,05,27,01,17,11.20
2015,05,27,01,18,11.20
2015,05,27,01,19,11.20
2015,05,27,01,20,11.20
2015,05,27,01,21,11.20
2015,05,27,01,22,11.20
2015,05,27,01,23,11.20
2015,05,27,01,24,11.20
2015,05,27,01,25,11.30
2015,05,27,01,26,11.30
2015,05,27,01,27,11.30
2015,05,27,01,28,11.30
2015,05,27,01,29,11.30
2015,05,27,01,30,11.30
2015,05,27,01,31,11.30
2015,05,27,01,32,11.30
2015,05,27,01,33,11.30
2015,05,27,01,34,11.30
2015,05,27,01,35,11.30
2015,05,27,01,36,11.30
2015,05,27,01,37,11.30
2015,05,27,01,38,11.20
2015,05,27,01,39,11.20
2015,05,27,01,40,11.20
2015,05,27,01,41,11.20
2015,05,27,01,42,11.20
2015,05,27,01,43,11.20
2015,05,27,01,44,11.20
2015,05,27,01,45,11.20
2015,05,27,01,46,11.20
2015,05,27,01,47,11.20
2015,05,27,01,48,11.20
2015,05,27,01,49,11.20
2015,05,27,01,50,11.20
2015,05,27,01,51,11.20
2015,05,27,01,52,11.20
2015,05,27,01,53,11.20
2015,05,27,01,54,11.20
2015,05,27,01,55,11.20
2015,05,27,01,56,11.20
2015,05,27,01,57,11.20
2015,05,27,01,58,11.20
2015,05,27,01,59,11.20
2015,05,27,02,00,11.20
2015,05,27,02,01,11.20
2015,05,27,02,02,11.20
2015,05,27,02,03,11.20
2015,05,27,02,04,11.20
2015,05,27,02,05,11.20
2015,05,27,02,06,11.20
2015,05,27,02,07,11.20
2015,05,27,02,08,11.20
2015,05,27,02,09,11.20
2015,05,27,02,10,11.20
2015,05,27,02,11,11.20
2015,05,27,02,12,11.20
2015,05,27,02,13,11.20
2015,05,27,02,14,11.20
2015,05,27,02,15,11.10
2015,05,27,02,16,11.10
2015,05,27,02,17,11.10
2015,05,27,02,18,11.10
2015,05,27,02,19,11.10
2015,05,27,02,20,11.00
2015,05,27,02,21,11.00
2015,05,27,02,22,11.00
2015,05,27,02,23,10.90
2015,05,27,02,24,10.90
2015,05,27,02,25,10.90
2015,05,27,02,26,10.90
2015,05,27,02,27,10.90
2015,05,27,02,28,10.80
2015,05,27,02,29,10.80
2015,05,27,02,30,10.80
2015,05,27,02,31,10.80
2015,05,27,02,32,10.80
2015,05,27,02,33,10.80
2015,05,27,02,34,10.80
2015,05,27,02,35,10.80
2015,05,27,02,36,10.80
2015,05,27,02,37,10.80
2015,05,27,02,38,10.80
2015,05,27,02,39,10.80
2015,05,27,02,40,10.80
2015,05,27,02,41,10.80
2015,05,27,02,42,10.80
2015,05,27,02,43,10.80
2015,05,27,02,44,10.80
2015,05,27,02,45,10.80
2015,05,27,02,46,10.80
2015,05,27,02,47,10.80
2015,05,27,02,48,10.80
2015,05,27,02,49,10.80
2015,05,27,02,50,10.80
2015,05,27,02,51,10.80
2015,05,27,02,52,10.70
2015,05,27,02,53,10.70
2015,05,27,02,54,10.70
2015,05,27,02,55,10.70
2015,05,27,02,56,10.70
2015,05,27,02,57,10.70
2015,05,27,02,58,10.70
2015,05,27,02,59,10.70
2015,05,27,03,00,10.70
2015,05,27,03,01,10.60
2015,05,27,03,02,10.60
2015,05,27,03,03,10.60
2015,05,27,03,04,10.60
2015,05,27,03,05,10.60
2015,05,27,03,06,10.60
2015,05,27,03,07,10.60
2015,05,27,03,08,10.70
2015,05,27,03,09,10.70
2015,05,27,03,10,10.70
2015,05,27,03,11,10.70
2015,05,27,03,12,10.70
2015,05,27,03,13,10.70
2015,05,27,03,14,10.70
2015,05,27,03,15,10.70
2015,05,27,03,16,10.70
2015,05,27,03,17,10.70
2015,05,27,03,18,10.70
2015,05,27,03,19,10.70
2015,05,27,03,20,10.70
2015,05,27,03,21,10.70
2015,05,27,03,22,10.70
2015,05,27,03,23,10.80
2015,05,27,03,24,10.80
2015,05,27,03,25,10.80
2015,05,27,03,26,10.80
2015,05,27,03,27,10.80
2015,05,27,03,28,10.70
2015,05,27,03,29,10.70
2015,05,27,03,30,10.60
2015,05,27,03,31,10.60
2015,05,27,03,32,10.50
2015,05,27,03,33,10.50
2015,05,27,03,34,10.40
2015,05,27,03,35,10.40
2015,05,27,03,36,10.30
2015,05,27,03,37,10.30
2015,05,27,03,38,10.30
2015,05,27,03,39,10.30
2015,05,27,03,40,10.30
2015,05,27,03,41,10.20
2015,05,27,03,42,10.20
2015,05,27,03,43,10.20
2015,05,27,03,44,10.20
2015,05,27,03,45,10.20
2015,05,27,03,46,10.10
2015,05,27,03,47,10.10
2015,05,27,03,48,10.10
2015,05,27,03,49,10.10
2015,05,27,03,50,10.10
2015,05,27,03,51,10.00
2015,05,27,03,52,10.00
2015,05,27,03,53,9.90
2015,05,27,03,54,9.90
2015,05,27,03,55,9.90
2015,05,27,03,56,9.90
2015,05,27,03,57,9.90
2015,05,27,03,58,9.90
2015,05,27,03,59,9.90
2015,05,27,04,00,9.90
2015,05,27,04,01,9.90
2015,05,27,04,02,9.90
2015,05,27,04,03,9.90
2015,05,27,04,04,9.90
2015,05,27,04,05,10.00
2015,05,27,04,06,10.00
2015,05,27,04,07,10.00
2015,05,27,04,08,10.00
2015,05,27,04,09,10.00
2015,05,27,04,10,10.00
2015,05,27,04,11,10.00
2015,05,27,04,12,10.00
2015,05,27,04,13,10.00
2015,05,27,04,14,10.00
2015,05,27,04,15,10.10
2015,05,27,04,16,10.10
2015,05,27,04,17,10.00
2015,05,27,04,18,10.00
2015,05,27,04,19,10.00
2015,05,27,04,20,10.00
2015,05,27,04,21,10.00
2015,05,27,04,22,10.00
2015,05,27,04,23,10.00
2015,05,27,04,24,10.00
2015,05,27,04,25,10.10
2015,05,27,04,26,10.10
2015,05,27,04,27,10.00
2015,05,27,04,28,10.00
2015,05,27,04,29,10.00
2015,05,27,04,30,10.00
2015,05,27,04,31,10.00
2015,05,27,04,32,10.00
2015,05,27,04,33,10.00
2015,05,27,04,34,10.00
2015,05,27,04,35,10.00
2015,05,27,04,36,10.00
2015,05,27,04,37,9.90
2015,05,27,04,38,9.90
2015,05,27,04,39,9.90
2015,05,27,04,40,9.90
2015,05,27,04,41,9.80
2015,05,27,04,42,9.80
2015,05,27,04,43,9.80
2015,05,27,04,44,9.80
2015,05,27,04,45,9.80
2015,05,27,04,46,9.80
2015,05,27,04,47,9.80
2015,05,27,04,48,9.80
2015,05,27,04,49,9.80
2015,05,27,04,50,9.80
2015,05,27,04,51,9.80
2015,05,27,04,52,9.80
2015,05,27,04,53,9.80
2015,05,27,04,54,9.80
2015,05,27,04,55,9.80
2015,05,27,04,56,9.80
2015,05,27,04,57,9.80
2015,05,27,04,58,9.80
2015,05,27,04,59,9.80
2015,05,27,05,00,9.80
2015,05,27,05,01,9.70
2015,05,27,05,02,9.70
2015,05,27,05,03,9.70
2015,05,27,05,04,9.70
2015,05,27,05,05,9.70
2015,05,27,05,06,9.70
2015,05,27,05,07,9.70
2015,05,27,05,08,9.70
2015,05,27,05,09,9.70
2015,05,27,05,10,9.70
2015,05,27,05,11,9.70
2015,05,27,05,12,9.70
2015,05,27,05,13,9.70
2015,05,27,05,14,9.70
2015,05,27,05,15,9.70
2015,05,27,05,16,9.70
2015,05,27,05,17,9.70
2015,05,27,05,18,9.70
2015,05,27,05,19,9.60
2015,05,27,05,20,9.60
2015,05,27,05,21,9.60
2015,05,27,05,22,9.60
2015,05,27,05,23,9.60
2015,05,27,05,24,9.60
2015,05,27,05,25,9.60
2015,05,27,05,26,9.60
2015,05,27,05,27,9.60
2015,05,27,05,28,9.60
2015,05,27,05,29,9.60
2015,05,27,05,30,9.60
2015,05,27,05,31,9.60
2015,05,27,05,32,9.60
2015,05,27,05,33,9.60
2015,05,27,05,34,9.60
2015,05,27,05,35,9.60
2015,05,27,05,36,9.60
2015,05,27,05,37,9.60
2015,05,27,05,38,9.60
2015,05,27,05,39,9.60
2015,05,27,05,40,9.60
2015,05,27,05,41,9.60
2015,05,27,05,42,9.60
2015,05,27,05,43,9.60
2015,05,27,05,44,9.60
2015,05,27,05,45,9.60
2015,05,27,05,46,9.60
2015,05,27,05,47,9.60
2015,05,27,05,48,9.60
2015,05,27,05,49,9.60
2015,05,27,05,50,9.60
2015,05,27,05,51,9.60
2015,05,27,05,52,9.60
2015,05,27,05,53,9.60
2015,05,27,05,54,9.60
2015,05,27,05,55,9.60
2015,05,27,05,56,9.60
2015,05,27,05,57,9.60
2015,05,27,05,58,9.60
2015,05,27,05,59,9.60
2015,05,27,06,00,9.60
2015,05,27,06,01,9.70
2015,05,27,06,02,9.70
2015,05,27,06,03,9.70
2015,05,27,06,04,9.70
2015,05,27,06,05,9.70
2015,05,27,06,06,9.70
2015,05,27,06,07,9.70
2015,05,27,06,08,9.70
2015,05,27,06,09,9.80
2015,05,27,06,10,9.70
2015,05,27,06,11,9.70
2015,05,27,06,12,9.70
2015,05,27,06,13,9.70
2015,05,27,06,14,9.70
2015,05,27,06,15,9.70
2015,05,27,06,16,9.70
2015,05,27,06,17,9.70
2015,05,27,06,18,9.70
2015,05,27,06,19,9.70
2015,05,27,06,20,9.70
2015,05,27,06,21,9.70
2015,05,27,06,22,9.70
2015,05,27,06,23,9.70
2015,05,27,06,24,9.80
2015,05,27,06,25,9.80
2015,05,27,06,26,9.80
2015,05,27,06,27,9.80
2015,05,27,06,28,9.80
2015,05,27,06,29,9.80
2015,05,27,06,30,9.80
2015,05,27,06,31,9.80
2015,05,27,06,32,9.80
2015,05,27,06,33,9.80
2015,05,27,06,34,9.90
2015,05,27,06,35,9.90
2015,05,27,06,36,9.90
2015,05,27,06,37,9.90
2015,05,27,06,38,10.00
2015,05,27,06,39,10.00
2015,05,27,06,40,10.10
2015,05,27,06,41,10.10
2015,05,27,06,42,10.10
2015,05,27,06,43,10.10
2015,05,27,06,44,10.20
2015,05,27,06,45,10.20
2015,05,27,06,46,10.20
2015,05,27,06,47,10.20
2015,05,27,06,48,10.20
2015,05,27,06,49,10.20
2015,05,27,06,50,10.30
2015,05,27,06,51,10.30
2015,05,27,06,52,10.30
2015,05,27,06,53,10.30
2015,05,27,06,54,10.30
2015,05,27,06,55,10.30
2015,05,27,06,56,10.40
2015,05,27,06,57,10.40
2015,05,27,06,58,10.40
2015,05,27,06,59,10.40
2015,05,27,07,00,10.50
2015,05,27,07,01,10.50
2015,05,27,07,02,10.60
2015,05,27,07,03,10.60
2015,05,27,07,04,10.60
2015,05,27,07,05,10.60
2015,05,27,07,06,10.60
2015,05,27,07,07,10.70
2015,05,27,07,08,10.70
2015,05,27,07,09,10.70
2015,05,27,07,10,10.70
2015,05,27,07,11,10.70
2015,05,27,07,12,10.70
2015,05,27,07,13,10.70
2015,05,27,07,14,10.70
2015,05,27,07,15,10.80
2015,05,27,07,16,10.80
2015,05,27,07,17,10.80
2015,05,27,07,18,10.90
2015,05,27,07,19,10.90
2015,05,27,07,20,10.90
2015,05,27,07,21,10.90
2015,05,27,07,22,10.90
2015,05,27,07,23,11.00
2015,05,27,07,24,11.00
2015,05,27,07,25,11.00
2015,05,27,07,26,11.10
2015,05,27,07,27,11.10
2015,05,27,07,28,11.10
2015,05,27,07,29,11.20
2015,05,27,07,30,11.20
2015,05,27,07,31,11.20
2015,05,27,07,32,11.20
2015,05,27,07,33,11.20
2015,05,27,07,34,11.20
2015,05,27,07,35,11.20
2015,05,27,07,36,11.20
2015,05,27,07,37,11.30
2015,05,27,07,38,11.30
2015,05,27,07,39,11.30
2015,05,27,07,40,11.30
2015,05,27,07,41,11.40
2015,05,27,07,42,11.40
2015,05,27,07,43,11.50
2015,05,27,07,44,11.60
2015,05,27,07,45,11.60
2015,05,27,07,46,11.70
2015,05,27,07,47,11.70
2015,05,27,07,48,11.80
2015,05,27,07,49,11.80
2015,05,27,07,50,11.90
2015,05,27,07,51,11.90
2015,05,27,07,52,12.00
2015,05,27,07,53,12.10
2015,05,27,07,54,12.10
2015,05,27,07,55,12.20
2015,05,27,07,56,12.20
2015,05,27,07,57,12.20
2015,05,27,07,58,12.20
2015,05,27,07,59,12.30
2015,05,27,08,00,12.30
2015,05,27,08,01,12.30
2015,05,27,08,02,12.30
2015,05,27,08,03,12.40
2015,05,27,08,04,12.40
2015,05,27,08,05,12.50
2015,05,27,08,06,12.50
2015,05,27,08,07,12.50
2015,05,27,08,08,12.60
2015,05,27,08,09,12.60
2015,05,27,08,10,12.70
2015,05,27,08,11,12.70
2015,05,27,08,12,12.70
2015,05,27,08,13,12.70
2015,05,27,08,14,12.70
2015,05,27,08,15,12.70
2015,05,27,08,16,12.70
2015,05,27,08,17,12.70
2015,05,27,08,18,12.70
2015,05,27,08,19,12.70
2015,05,27,08,20,12.70
2015,05,27,08,21,12.80
2015,05,27,08,22,12.80
2015,05,27,08,23,12.80
2015,05,27,08,24,12.80
2015,05,27,08,25,12.80
2015,05,27,08,26,12.90
2015,05,27,08,27,12.90
2015,05,27,08,28,13.00
2015,05,27,08,29,13.00
2015,05,27,08,30,13.00
2015,05,27,08,31,13.00
2015,05,27,08,32,13.10
2015,05,27,08,33,13.10
2015,05,27,08,34,13.20
2015,05,27,08,35,13.30
2015,05,27,08,36,13.40
2015,05,27,08,37,13.40
2015,05,27,08,38,13.50
2015,05,27,08,39,13.60
2015,05,27,08,40,13.70
2015,05,27,08,41,13.80
2015,05,27,08,42,14.00
2015,05,27,08,43,14.20
2015,05,27,08,44,14.30
2015,05,27,08,45,14.40
2015,05,27,08,46,14.50
2015,05,27,08,47,14.60
2015,05,27,08,48,14.80
2015,05,27,08,49,14.80
2015,05,27,08,50,14.90
2015,05,27,08,51,14.90
2015,05,27,08,52,14.80
2015,05,27,08,53,14.80
2015,05,27,08,54,14.70
2015,05,27,08,55,14.70
2015,05,27,08,56,14.70
2015,05,27,08,57,14.70
2015,05,27,08,58,14.60
2015,05,27,08,59,14.60
2015,05,27,09,00,14.60
2015,05,27,09,01,14.60
2015,05,27,09,02,14.60
2015,05,27,09,03,14.60
2015,05,27,09,04,14.60
2015,05,27,09,05,14.70
2015,05,27,09,06,14.70
2015,05,27,09,07,14.80
2015,05,27,09,08,15.00
2015,05,27,09,09,15.00
2015,05,27,09,10,15.00
2015,05,27,09,11,15.00
2015,05,27,09,12,15.10
2015,05,27,09,13,15.20
2015,05,27,09,14,15.30
2015,05,27,09,15,15.50
2015,05,27,09,16,15.60
2015,05,27,09,17,15.60
2015,05,27,09,18,15.70
2015,05,27,09,19,15.80
2015,05,27,09,20,15.90
2015,05,27,09,21,15.90
2015,05,27,09,22,16.00
2015,05,27,09,23,16.00
2015,05,27,09,24,16.10
2015,05,27,09,25,16.10
2015,05,27,09,26,16.20
2015,05,27,09,27,16.20
2015,05,27,09,28,16.30
2015,05,27,09,29,16.30
2015,05,27,09,30,16.30
2015,05,27,09,31,16.40
2015,05,27,09,32,16.50
2015,05,27,09,33,16.50
2015,05,27,09,34,16.60
2015,05,27,09,35,16.70
2015,05,27,09,36,16.70
2015,05,27,09,37,16.80
2015,05,27,09,38,16.80
2015,05,27,09,39,16.80
2015,05,27,09,40,16.90
2015,05,27,09,41,16.90
2015,05,27,09,42,16.90
2015,05,27,09,43,17.00
2015,05,27,09,44,17.00
2015,05,27,09,45,17.00
2015,05,27,09,46,17.00
2015,05,27,09,47,17.00
2015,05,27,09,48,17.00
2015,05,27,09,49,17.10
2015,05,27,09,50,17.10
2015,05,27,09,51,17.00
2015,05,27,09,52,17.00
2015,05,27,09,53,17.00
2015,05,27,09,54,17.00
2015,05,27,09,55,17.10
2015,05,27,09,56,17.10
2015,05,27,09,57,17.00
2015,05,27,09,58,17.00
2015,05,27,09,59,16.90
2015,05,27,10,00,16.90
2015,05,27,10,01,16.80
2015,05,27,10,02,16.70
2015,05,27,10,03,16.60
2015,05,27,10,04,16.60
2015,05,27,10,05,16.60
2015,05,27,10,06,16.50
2015,05,27,10,07,16.50
2015,05,27,10,08,16.40
2015,05,27,10,09,16.40
2015,05,27,10,10,16.30
2015,05,27,10,11,16.20
2015,05,27,10,12,16.20
2015,05,27,10,13,16.20
2015,05,27,10,14,16.20
2015,05,27,10,15,16.20
2015,05,27,10,16,16.20
2015,05,27,10,17,16.20
2015,05,27,10,18,16.20
2015,05,27,10,19,16.20
2015,05,27,10,20,16.30
2015,05,27,10,21,16.30
2015,05,27,10,22,16.30
2015,05,27,10,23,16.30
2015,05,27,10,24,16.40
2015,05,27,10,25,16.50
2015,05,27,10,26,16.50
2015,05,27,10,27,16.60
2015,05,27,10,28,16.70
2015,05,27,10,29,16.70
2015,05,27,10,30,16.80
2015,05,27,10,31,16.80
2015,05,27,10,32,16.70
2015,05,27,10,33,16.70
2015,05,27,10,34,16.70
2015,05,27,10,35,16.70
2015,05,27,10,36,16.70
2015,05,27,10,37,16.70
2015,05,27,10,38,16.70
2015,05,27,10,39,16.80
2015,05,27,10,40,16.80
2015,05,27,10,41,16.80
2015,05,27,10,42,16.80
2015,05,27,10,43,16.90
2015,05,27,10,44,16.90
2015,05,27,10,45,16.90
2015,05,27,10,46,17.00
2015,05,27,10,47,17.00
2015,05,27,10,48,17.10
2015,05,27,10,49,17.10
2015,05,27,10,50,17.10
2015,05,27,10,51,17.10
2015,05,27,10,52,17.10
2015,05,27,10,53,17.10
2015,05,27,10,54,17.20
2015,05,27,10,55,17.20
2015,05,27,10,56,17.20
2015,05,27,10,57,17.20
2015,05,27,10,58,17.20
2015,05,27,10,59,17.30
2015,05,27,11,00,17.30
2015,05,27,11,01,17.30
2015,05,27,11,02,17.20
2015,05,27,11,03,17.30
2015,05,27,11,04,17.30
2015,05,27,11,05,17.30
2015,05,27,11,06,17.40
2015,05,27,11,07,17.40
2015,05,27,11,08,17.50
2015,05,27,11,09,17.50
2015,05,27,11,10,17.50
2015,05,27,11,11,17.50
2015,05,27,11,12,17.40
2015,05,27,11,13,17.40
2015,05,27,11,14,17.40
2015,05,27,11,15,17.40
2015,05,27,11,16,17.30
2015,05,27,11,17,17.30
2015,05,27,11,18,17.30
2015,05,27,11,19,17.40
2015,05,27,11,20,17.40
2015,05,27,11,21,17.30
2015,05,27,11,22,17.30
2015,05,27,11,23,17.30
2015,05,27,11,24,17.20
2015,05,27,11,25,17.20
2015,05,27,11,26,17.10
2015,05,27,11,27,17.10
2015,05,27,11,28,17.10
2015,05,27,11,29,17.10
2015,05,27,11,30,17.00
2015,05,27,11,31,17.00
2015,05,27,11,32,17.00
2015,05,27,11,33,17.00
2015,05,27,11,34,17.00
2015,05,27,11,35,17.10
2015,05,27,11,36,17.20
2015,05,27,11,37,17.20
2015,05,27,11,38,17.30
2015,05,27,11,39,17.30
2015,05,27,11,40,17.30
2015,05,27,11,41,17.30
2015,05,27,11,42,17.30
2015,05,27,11,43,17.30
2015,05,27,11,44,17.20
2015,05,27,11,45,17.20
2015,05,27,11,46,17.20
2015,05,27,11,47,17.20
2015,05,27,11,48,17.30
2015,05,27,11,49,17.30
2015,05,27,11,50,17.40
2015,05,27,11,51,17.40
2015,05,27,11,52,17.40
2015,05,27,11,53,17.50
2015,05,27,11,54,17.40
2015,05,27,11,55,17.40
2015,05,27,11,56,17.50
2015,05,27,11,57,17.50
2015,05,27,11,58,17.60
2015,05,27,11,59,17.60
2015,05,27,12,00,17.60
2015,05,27,12,01,17.70
2015,05,27,12,02,17.70
2015,05,27,12,03,17.70
2015,05,27,12,04,17.70
2015,05,27,12,05,17.80
2015,05,27,12,06,17.80
2015,05,27,12,07,17.70
2015,05,27,12,08,17.70
2015,05,27,12,09,17.80
2015,05,27,12,10,17.80
2015,05,27,12,11,17.80
2015,05,27,12,12,17.80
2015,05,27,12,13,17.80
2015,05,27,12,14,17.90
2015,05,27,12,15,18.00
2015,05,27,12,16,18.00
2015,05,27,12,17,18.10
2015,05,27,12,18,18.10
2015,05,27,12,19,18.20
2015,05,27,12,20,18.20
2015,05,27,12,21,18.20
2015,05,27,12,22,18.30
2015,05,27,12,23,18.30
2015,05,27,12,24,18.40
2015,05,27,12,25,18.40
2015,05,27,12,26,18.50
2015,05,27,12,27,18.60
2015,05,27,12,28,18.70
2015,05,27,12,29,18.80
2015,05,27,12,30,18.80
2015,05,27,12,31,18.80
2015,05,27,12,32,18.70
2015,05,27,12,33,18.60
2015,05,27,12,34,18.60
2015,05,27,12,35,18.50
2015,05,27,12,36,18.50
2015,05,27,12,37,18.40
2015,05,27,12,38,18.40
2015,05,27,12,39,18.40
2015,05,27,12,40,18.50
2015,05,27,12,41,18.60
2015,05,27,12,42,18.60
2015,05,27,12,43,18.80
2015,05,27,12,44,18.80
2015,05,27,12,45,18.90
2015,05,27,12,46,18.90
2015,05,27,12,47,18.90
2015,05,27,12,48,18.90
2015,05,27,12,49,19.00
2015,05,27,12,50,19.10
2015,05,27,12,51,19.10
2015,05,27,12,52,19.20
2015,05,27,12,53,19.20
2015,05,27,12,54,19.10
2015,05,27,12,55,19.10
2015,05,27,12,56,19.10
2015,05,27,12,57,19.10
2015,05,27,12,58,19.10
2015,05,27,12,59,19.10
2015,05,27,13,00,19.10
2015,05,27,13,01,19.10
2015,05,27,13,02,19.00
2015,05,27,13,03,18.90
2015,05,27,13,04,18.80
2015,05,27,13,05,18.80
2015,05,27,13,06,18.80
2015,05,27,13,07,18.80
2015,05,27,13,08,18.80
2015,05,27,13,09,18.80
2015,05,27,13,10,18.90
2015,05,27,13,11,19.00
2015,05,27,13,12,19.10
2015,05,27,13,13,19.20
2015,05,27,13,14,19.20
2015,05,27,13,15,19.30
2015,05,27,13,16,19.30
2015,05,27,13,17,19.40
2015,05,27,13,18,19.40
2015,05,27,13,19,19.50
2015,05,27,13,20,19.60
2015,05,27,13,21,19.70
2015,05,27,13,22,19.80
2015,05,27,13,23,19.80
2015,05,27,13,24,19.90
2015,05,27,13,25,20.00
2015,05,27,13,26,20.00
2015,05,27,13,27,20.10
2015,05,27,13,28,20.10
2015,05,27,13,29,20.00
2015,05,27,13,30,20.00
2015,05,27,13,31,19.90
2015,05,27,13,32,19.90
2015,05,27,13,33,19.80
2015,05,27,13,34,19.70
2015,05,27,13,35,19.60
2015,05,27,13,36,19.60
2015,05,27,13,37,19.70
2015,05,27,13,38,19.80
2015,05,27,13,39,19.90
2015,05,27,13,40,20.00
2015,05,27,13,41,20.10
2015,05,27,13,42,20.30
2015,05,27,13,43,20.40
2015,05,27,13,44,20.50
2015,05,27,13,45,20.60
2015,05,27,13,46,20.70
2015,05,27,13,47,20.80
2015,05,27,13,48,20.90
2015,05,27,13,49,21.00
2015,05,27,13,50,21.00
2015,05,27,13,51,21.00
2015,05,27,13,52,20.90
2015,05,27,13,53,20.90
2015,05,27,13,54,20.80
2015,05,27,13,55,20.80
2015,05,27,13,56,20.70
2015,05,27,13,57,20.60
2015,05,27,13,58,20.50
2015,05,27,13,59,20.30
2015,05,27,14,00,20.10
2015,05,27,14,01,20.00
2015,05,27,14,02,19.90
2015,05,27,14,03,19.70
2015,05,27,14,04,19.60
2015,05,27,14,05,19.40
2015,05,27,14,06,19.20
2015,05,27,14,07,19.00
2015,05,27,14,08,18.80
2015,05,27,14,09,18.60
2015,05,27,14,10,18.40
2015,05,27,14,11,18.30
2015,05,27,14,12,18.20
2015,05,27,14,13,18.20
2015,05,27,14,14,18.10
2015,05,27,14,15,18.00
2015,05,27,14,16,18.00
2015,05,27,14,17,17.90
2015,05,27,14,18,18.00
2015,05,27,14,19,18.00
2015,05,27,14,20,18.10
2015,05,27,14,21,18.10
2015,05,27,14,22,18.10
2015,05,27,14,23,18.00
2015,05,27,14,24,17.90
2015,05,27,14,25,17.90
2015,05,27,14,26,17.80
2015,05,27,14,27,17.80
2015,05,27,14,28,17.80
2015,05,27,14,29,17.80
2015,05,27,14,30,17.80
2015,05,27,14,31,17.80
2015,05,27,14,32,17.80
2015,05,27,14,33,17.90
2015,05,27,14,34,17.80
2015,05,27,14,35,17.80
2015,05,27,14,36,17.80
2015,05,27,14,37,17.70
2015,05,27,14,38,17.70
2015,05,27,14,39,17.80
2015,05,27,14,40,17.80
2015,05,27,14,41,17.90
2015,05,27,14,42,18.00
2015,05,27,14,43,18.00
2015,05,27,14,44,18.10
2015,05,27,14,45,18.20
2015,05,27,14,46,18.20
2015,05,27,14,47,18.10
2015,05,27,14,48,18.10
2015,05,27,14,49,18.10
2015,05,27,14,50,18.10
2015,05,27,14,51,18.20
2015,05,27,14,52,18.20
2015,05,27,14,53,18.10
2015,05,27,14,54,18.10
2015,05,27,14,55,18.10
2015,05,27,14,56,18.10
2015,05,27,14,57,18.10
2015,05,27,14,58,18.20
2015,05,27,14,59,18.30
2015,05,27,15,00,18.40
2015,05,27,15,01,18.40
2015,05,27,15,02,18.40
2015,05,27,15,03,18.40
2015,05,27,15,04,18.30
2015,05,27,15,05,18.30
2015,05,27,15,06,18.30
2015,05,27,15,07,18.40
2015,05,27,15,08,18.40
2015,05,27,15,09,18.40
2015,05,27,15,10,18.50
2015,05,27,15,11,18.40
2015,05,27,15,12,18.50
2015,05,27,15,13,18.60
2015,05,27,15,14,18.60
2015,05,27,15,15,18.70
2015,05,27,15,16,18.70
2015,05,27,15,17,18.70
2015,05,27,15,18,18.70
2015,05,27,15,19,18.70
2015,05,27,15,20,18.70
2015,05,27,15,21,18.70
2015,05,27,15,22,18.70
2015,05,27,15,23,18.70
2015,05,27,15,24,18.70
2015,05,27,15,25,18.80
2015,05,27,15,26,18.80
2015,05,27,15,27,18.90
2015,05,27,15,28,19.00
2015,05,27,15,29,19.00
2015,05,27,15,30,19.10
2015,05,27,15,31,19.10
2015,05,27,15,32,19.10
2015,05,27,15,33,19.20
2015,05,27,15,34,19.30
2015,05,27,15,35,19.30
2015,05,27,15,36,19.30
2015,05,27,15,37,19.30
2015,05,27,15,38,19.20
2015,05,27,15,39,19.20
2015,05,27,15,40,19.20
2015,05,27,15,41,19.20
2015,05,27,15,42,19.20
2015,05,27,15,43,19.20
2015,05,27,15,44,19.20
2015,05,27,15,45,19.20
2015,05,27,15,46,19.30
2015,05,27,15,47,19.30
2015,05,27,15,48,19.40
2015,05,27,15,49,19.40
2015,05,27,15,50,19.40
2015,05,27,15,51,19.50
2015,05,27,15,52,19.40
2015,05,27,15,53,19.50
2015,05,27,15,54,19.60
2015,05,27,15,55,19.60
2015,05,27,15,56,19.50
2015,05,27,15,57,19.50
2015,05,27,15,58,19.50
2015,05,27,15,59,19.50
2015,05,27,16,00,19.60
2015,05,27,16,01,19.60
2015,05,27,16,02,19.60
2015,05,27,16,03,19.60
2015,05,27,16,04,19.50
2015,05,27,16,05,19.50
2015,05,27,16,06,19.50
2015,05,27,16,07,19.40
2015,05,27,16,08,19.50
2015,05,27,16,09,19.50
2015,05,27,16,10,19.60
2015,05,27,16,11,19.60
2015,05,27,16,12,19.60
2015,05,27,16,13,19.70
2015,05,27,16,14,19.80
2015,05,27,16,15,19.80
2015,05,27,16,16,19.80
2015,05,27,16,17,19.80
2015,05,27,16,18,19.80
2015,05,27,16,19,19.80
2015,05,27,16,20,19.80
2015,05,27,16,21,19.90
2015,05,27,16,22,19.90
2015,05,27,16,23,19.90
2015,05,27,16,24,20.00
2015,05,27,16,25,20.10
2015,05,27,16,26,20.10
2015,05,27,16,27,20.10
2015,05,27,16,28,20.20
2015,05,27,16,29,20.30
2015,05,27,16,30,20.30
2015,05,27,16,31,20.30
2015,05,27,16,32,20.20
2015,05,27,16,33,20.10
2015,05,27,16,34,20.10
2015,05,27,16,35,20.00
2015,05,27,16,36,19.90
2015,05,27,16,37,19.90
2015,05,27,16,38,19.90
2015,05,27,16,39,19.90
2015,05,27,16,40,19.90
2015,05,27,16,41,19.90
2015,05,27,16,42,19.90
2015,05,27,16,43,19.90
2015,05,27,16,44,19.90
2015,05,27,16,45,20.00
2015,05,27,16,46,20.00
2015,05,27,16,47,20.00
2015,05,27,16,48,20.00
2015,05,27,16,49,20.00
2015,05,27,16,50,19.90
2015,05,27,16,51,19.90
2015,05,27,16,52,19.90
2015,05,27,16,53,19.90
2015,05,27,16,54,19.90
2015,05,27,16,55,19.90
2015,05,27,16,56,19.90
2015,05,27,16,57,19.90
2015,05,27,16,58,19.90
2015,05,27,16,59,19.90
2015,05,27,17,00,20.00
2015,05,27,17,01,20.10
2015,05,27,17,02,20.10
2015,05,27,17,03,20.10
2015,05,27,17,04,20.10
2015,05,27,17,05,20.00
2015,05,27,17,06,20.10
2015,05,27,17,07,20.20
2015,05,27,17,08,20.20
2015,05,27,17,09,20.30
2015,05,27,17,10,20.30
2015,05,27,17,11,20.30
2015,05,27,17,12,20.30
2015,05,27,17,13,20.30
2015,05,27,17,14,20.30
2015,05,27,17,15,20.30
2015,05,27,17,16,20.30
2015,05,27,17,17,20.20
2015,05,27,17,18,20.10
2015,05,27,17,19,20.10
2015,05,27,17,20,20.10
2015,05,27,17,21,20.10
2015,05,27,17,22,20.10
2015,05,27,17,23,20.10
2015,05,27,17,24,20.10
2015,05,27,17,25,20.10